When you browse on this site, cookies collect data to enhance your experience and personalize the content and advertising you see.
Visit our Privacy Policy to learn more. By continuing to use the site, you agree to this use of cookies and data.
  • In Portugal
  • List of Countries
  • For 7 days
  • Water Temperature
  • Weather Map
  • Weather Widgets
  • user-avatar
    Login

    Hourly Weather Berezovka

    Today, 5 June, Friday

    Time Temperature Precipitation Wind Pressure Humidity
    00:00 +10°C° 0 mm 1 mps 723 mmHg 83%
    01:00 +10°C° 0 mm 1 mps 723 mmHg 85%
    02:00 +10°C° 0 mm 1 mps 722 mmHg 86%
    03:00 +10°C° 0 mm 1 mps 722 mmHg 88%
    04:00 +10°C° 0.8 mm 1 mps 722 mmHg 89%
    05:00 +10°C° 0.8 mm 1 mps 721 mmHg 90%
    06:00 +9°C° 0 mm 0 mps 721 mmHg 89%
    07:00 +11°C° 0.3 mm 1 mps 721 mmHg 88%
    08:00 +11°C° 0.3 mm 1 mps 720 mmHg 87%
    09:00 +12°C° 0.3 mm 1 mps 720 mmHg 87%
    10:00 +13°C° 0.2 mm 1 mps 720 mmHg 81%
    11:00 +14°C° 0.2 mm 1 mps 719 mmHg 75%
    12:00 +15°C° 0 mm 1 mps 719 mmHg 70%
    13:00 +15°C° 0.6 mm 1 mps 719 mmHg 73%
    14:00 +14°C° 0.6 mm 1 mps 719 mmHg 75%
    15:00 +14°C° 0.6 mm 1 mps 719 mmHg 78%
    16:00 +13°C° 1.3 mm 1 mps 720 mmHg 82%
    17:00 +12°C° 1.3 mm 1 mps 720 mmHg 87%
    18:00 +11°C° 0 mm 1 mps 722 mmHg 88%
    19:00 +11°C° 0.7 mm 1 mps 722 mmHg 89%
    20:00 +10°C° 0.7 mm 1 mps 723 mmHg 89%
    21:00 +10°C° 0.7 mm 1 mps 723 mmHg 89%
    22:00 +8°C° 0.2 mm 2 mps 723 mmHg 90%
    23:00 +8°C° 0.2 mm 3 mps 723 mmHg 90%

    Tomorrow, 6 June, Saturday

    Time Temperature Precipitation Wind Pressure Humidity
    00:00 +6°C° 0.2 mm 4 mps 724 mmHg 90%
    01:00 +6°C° 0 mm 4 mps 724 mmHg 90%
    02:00 +5°C° 0 mm 4 mps 723 mmHg 90%
    03:00 +5°C° 0 mm 4 mps 723 mmHg 91%
    04:00 +6°C° 0.1 mm 5 mps 724 mmHg 89%
    05:00 +7°C° 0.1 mm 5 mps 725 mmHg 87%
    06:00 +7°C° 0.1 mm 5 mps 726 mmHg 84%
    07:00 +8°C° 0.2 mm 5 mps 726 mmHg 81%
    08:00 +9°C° 0.2 mm 6 mps 726 mmHg 77%
    09:00 +10°C° 0.2 mm 6 mps 727 mmHg 73%
    10:00 +10°C° 0.6 mm 6 mps 727 mmHg 72%
    11:00 +10°C° 0.6 mm 7 mps 728 mmHg 72%
    12:00 +11°C° 0.6 mm 7 mps 728 mmHg 71%
    13:00 +11°C° 0.3 mm 7 mps 728 mmHg 70%
    14:00 +11°C° 0.3 mm 6 mps 728 mmHg 69%
    15:00 +11°C° 0.3 mm 6 mps 728 mmHg 68%
    16:00 +10°C° 0.7 mm 5 mps 728 mmHg 74%
    17:00 +9°C° 0.7 mm 5 mps 728 mmHg 81%
    18:00 +10°C° 0.7 mm 4 mps 729 mmHg 87%
    19:00 +8°C° 1.6 mm 4 mps 729 mmHg 89%
    20:00 +9°C° 1.6 mm 3 mps 729 mmHg 91%
    21:00 +9°C° 1.6 mm 3 mps 729 mmHg 94%
    22:00 +8°C° 0.8 mm 3 mps 730 mmHg 93%
    23:00 +8°C° 0.8 mm 3 mps 730 mmHg 93%

    Day after tomorrow, 7 June, Sunday

    Time Temperature Precipitation Wind Pressure Humidity
    00:00 +8°C° 0.8 mm 3 mps 731 mmHg 93%
    01:00 +8°C° 0.1 mm 3 mps 731 mmHg 92%
    02:00 +8°C° 0.1 mm 3 mps 731 mmHg 92%
    03:00 +8°C° 0.1 mm 3 mps 731 mmHg 92%
    04:00 +8°C° 0.1 mm 3 mps 731 mmHg 90%
    05:00 +8°C° 0.1 mm 4 mps 731 mmHg 89%
    06:00 +10°C° 0.1 mm 4 mps 731 mmHg 88%
    07:00 +9°C° 0.2 mm 5 mps 731 mmHg 85%
    08:00 +10°C° 0.2 mm 5 mps 731 mmHg 81%
    09:00 +11°C° 0.2 mm 6 mps 731 mmHg 78%
    10:00 +11°C° 0.6 mm 6 mps 730 mmHg 80%
    11:00 +11°C° 0.6 mm 6 mps 730 mmHg 81%
    12:00 +11°C° 0.6 mm 6 mps 730 mmHg 82%
    13:00 +11°C° 0.5 mm 6 mps 730 mmHg 79%
    14:00 +13°C° 0.5 mm 6 mps 730 mmHg 75%
    15:00 +14°C° 0.5 mm 6 mps 730 mmHg 72%
    16:00 +14°C° 0.4 mm 6 mps 730 mmHg 74%
    17:00 +14°C° 0.4 mm 5 mps 730 mmHg 76%
    18:00 +13°C° 0.4 mm 5 mps 730 mmHg 79%
    19:00 +12°C° 1.1 mm 5 mps 730 mmHg 83%
    20:00 +10°C° 1.1 mm 5 mps 730 mmHg 88%
    21:00 +10°C° 1.1 mm 4 mps 729 mmHg 92%
    22:00 +10°C° 1.1 mm 4 mps 730 mmHg 92%
    23:00 +10°C° 1.1 mm 3 mps 730 mmHg 93%

    8 June, Monday

    Time Temperature Precipitation Wind Pressure Humidity
    00:00 +9°C° 1.1 mm 3 mps 730 mmHg 94%
    01:00 +9°C° 0.8 mm 2 mps 729 mmHg 94%
    02:00 +8°C° 0.8 mm 2 mps 729 mmHg 94%
    03:00 +8°C° 0.8 mm 2 mps 729 mmHg 95%
    04:00 +9°C° 0.4 mm 2 mps 730 mmHg 92%
    05:00 +9°C° 0.4 mm 2 mps 730 mmHg 90%
    06:00 +10°C° 0.4 mm 2 mps 730 mmHg 88%
    07:00 +12°C° 0.6 mm 2 mps 730 mmHg 79%
    08:00 +13°C° 0.6 mm 2 mps 730 mmHg 71%
    09:00 +15°C° 0.6 mm 2 mps 730 mmHg 63%
    10:00 +15°C° 0.3 mm 2 mps 730 mmHg 58%
    11:00 +16°C° 0.3 mm 2 mps 730 mmHg 54%
    12:00 +18°C° 0.3 mm 1 mps 730 mmHg 50%
    13:00 +17°C° 0.1 mm 2 mps 730 mmHg 49%
    14:00 +18°C° 0.1 mm 2 mps 730 mmHg 48%
    15:00 +18°C° 0.1 mm 2 mps 730 mmHg 47%
    16:00 +18°C° 0 mm 2 mps 730 mmHg 51%
    17:00 +18°C° 0 mm 2 mps 730 mmHg 54%
    18:00 +18°C° 0 mm 2 mps 731 mmHg 58%
    19:00 +16°C° 0 mm 2 mps 731 mmHg 59%
    20:00 +14°C° 0 mm 2 mps 731 mmHg 60%
    21:00 +11°C° 0 mm 3 mps 731 mmHg 62%
    22:00 +11°C° 0 mm 3 mps 730 mmHg 65%
    23:00 +11°C° 0 mm 3 mps 730 mmHg 69%

    9 June, Tuesday

    Time Temperature Precipitation Wind Pressure Humidity
    00:00 +11°C° 0 mm 4 mps 730 mmHg 72%
    01:00 +11°C° 1.3 mm 4 mps 729 mmHg 79%
    02:00 +10°C° 1.3 mm 4 mps 729 mmHg 86%
    03:00 +10°C° 1.3 mm 4 mps 728 mmHg 93%
    04:00 +9°C° 1.7 mm 5 mps 728 mmHg 93%
    05:00 +9°C° 1.7 mm 5 mps 728 mmHg 93%
    06:00 +9°C° 1.7 mm 5 mps 727 mmHg 93%
    07:00 +9°C° 1.3 mm 5 mps 727 mmHg 94%
    08:00 +9°C° 1.3 mm 5 mps 727 mmHg 94%
    09:00 +11°C° 1.3 mm 4 mps 727 mmHg 95%
    10:00 +10°C° 1.6 mm 5 mps 727 mmHg 94%
    11:00 +12°C° 1.6 mm 5 mps 727 mmHg 94%
    12:00 +12°C° 1.6 mm 5 mps 727 mmHg 94%
    13:00 +13°C° 0.9 mm 5 mps 727 mmHg 91%
    14:00 +14°C° 0.9 mm 5 mps 727 mmHg 89%
    15:00 +15°C° 0.9 mm 6 mps 727 mmHg 87%
    16:00 +15°C° 0.2 mm 6 mps 727 mmHg 87%
    17:00 +15°C° 0.2 mm 6 mps 727 mmHg 86%
    18:00 +16°C° 0.2 mm 6 mps 727 mmHg 86%
    19:00 +15°C° 1.7 mm 5 mps 727 mmHg 89%
    20:00 +14°C° 1.7 mm 4 mps 727 mmHg 92%
    21:00 +13°C° 1.7 mm 4 mps 726 mmHg 95%
    22:00 +13°C° 2.4 mm 3 mps 726 mmHg 95%
    23:00 +13°C° 2.4 mm 3 mps 726 mmHg 95%

    10 June, Wednesday

    Time Temperature Precipitation Wind Pressure Humidity
    00:00 +13°C° 2.4 mm 3 mps 725 mmHg 95%
    01:00 +13°C° 0.4 mm 3 mps 725 mmHg 95%
    02:00 +13°C° 0.4 mm 3 mps 725 mmHg 94%
    03:00 +12°C° 0.4 mm 3 mps 725 mmHg 93%
    04:00 +13°C° 0.2 mm 3 mps 724 mmHg 93%
    05:00 +14°C° 0.2 mm 2 mps 724 mmHg 94%
    06:00 +14°C° 0.2 mm 2 mps 724 mmHg 94%
    07:00 +13°C° 1.3 mm 3 mps 724 mmHg 94%
    08:00 +12°C° 1.3 mm 3 mps 724 mmHg 95%
    09:00 +12°C° 1.3 mm 3 mps 724 mmHg 95%
    10:00 +11°C° 3 mm 3 mps 725 mmHg 95%
    11:00 +12°C° 3 mm 2 mps 725 mmHg 95%
    12:00 +10°C° 3 mm 2 mps 725 mmHg 95%
    13:00 +10°C° 1.6 mm 2 mps 726 mmHg 94%
    14:00 +12°C° 1.6 mm 1 mps 726 mmHg 93%
    15:00 +12°C° 1.6 mm 1 mps 726 mmHg 92%
    16:00 +12°C° 0.2 mm 1 mps 727 mmHg 90%
    17:00 +13°C° 0.2 mm 2 mps 727 mmHg 88%
    18:00 +14°C° 0.2 mm 2 mps 727 mmHg 86%
    19:00 +12°C° 0 mm 2 mps 727 mmHg 89%
    20:00 +10°C° 0 mm 2 mps 727 mmHg 92%
    21:00 +9°C° 0 mm 2 mps 727 mmHg 95%
    22:00 +9°C° 0 mm 2 mps 727 mmHg 94%
    23:00 +9°C° 0 mm 2 mps 727 mmHg 94%
    Show more